Change the Weather History Date:

Wednesday, April 9, 2014

  Actual Average Record
Temperature  
Mean Temperature 54 °F -  
Max Temperature 84 °F 58 °F 88 °F (1988)
Min Temperature 27 °F 34 °F 18 °F (2003)
Degree Days  
Heating Degree Days 10    
Growing Degree Days 4 (Base 50)    
Moisture  
Dew Point 22 °F    
Average Humidity 34    
Maximum Humidity 67    
Minimum Humidity 12    
Precipitation  
Precipitation 0.00 in - - ()
Sea Level Pressure  
Sea Level Pressure 29.81 in    
Wind  
Wind Speed 12 mph (South)    
Max Wind Speed 29 mph    
Max Gust Speed 38 mph    
Visibility 10 miles    
Events      
Averages and records for this station are not official NWS values.
T = Trace of Precipitation, MM = Missing Value Source: NWS Daily Summary

Daily Weather History Graph

Daily Weather History Graph

Search for Another Location

Airport or City:

Trip Planner

Search our weather history database for the weather conditions in past years. The results will help you decide how hot, cold, wet, or windy it might be!

Date:

Astronomy

Apr. 09, 2014 Rise Set
Actual Time 6:54 AM CDT 7:58 PM CDT
Civil Twilight 6:25 AM CDT 8:27 PM CDT
Nautical Twilight 5:51 AM CDT 9:01 PM CDT
Astronomical Twilight 5:16 AM CDT 9:37 PM CDT
Moon 2:44 PM CDT (4/9) 3:48 AM CDT (4/9)
Length of Visible Light 14h 01m
Length of Day
13h 04m
Waxing Gibbous, 72% of the Moon is Illuminated
Apr 9
Waxing Gibbous
Apr 15
Full
Apr 22
Last Quarter
Apr 29
New
May 6
First Quarter

Hourly Weather History & Observations

Time (CDT) Temp. Windchill Dew Point Humidity Pressure Visibility Wind Dir Wind Speed Gust Speed Precip Events Conditions
12:54 AM 30.9 °F 24.3 °F 16.0 °F 54% 30.04 in 10.0 mi South 6.9 mph - N/A   Clear
1:54 AM 27.0 °F 20.5 °F 16.0 °F 63% 30.04 in 10.0 mi South 5.8 mph - N/A   Clear
2:54 AM 28.0 °F 20.0 °F 16.0 °F 61% 30.02 in 10.0 mi South 8.1 mph - N/A   Clear
3:54 AM 28.0 °F 19.3 °F 17.1 °F 63% 30.02 in 10.0 mi SSE 9.2 mph - N/A   Clear
4:54 AM 30.0 °F 21.1 °F 18.0 °F 61% 30.00 in 10.0 mi SSE 10.4 mph - N/A   Partly Cloudy
5:54 AM 28.9 °F 19.2 °F 19.0 °F 67% 29.98 in 10.0 mi SSE 11.5 mph - N/A   Clear
6:54 AM 30.0 °F 21.1 °F 19.0 °F 64% 29.97 in 10.0 mi SSE 10.4 mph - N/A   Clear
7:54 AM 39.9 °F 32.5 °F 21.9 °F 49% 29.95 in 10.0 mi SSE 12.7 mph - N/A   Clear
8:54 AM 48.9 °F - 21.0 °F 33% 29.94 in 10.0 mi South 15.0 mph - N/A   Clear
9:54 AM 57.9 °F - 21.0 °F 24% 29.90 in 10.0 mi SSW 19.6 mph - N/A   Clear
10:54 AM 64.9 °F - 21.0 °F 19% 29.87 in 10.0 mi SSW 24.2 mph 28.8 mph N/A   Clear
11:54 AM 71.1 °F - 23.0 °F 16% 29.82 in 10.0 mi SSW 26.5 mph 38.0 mph N/A   Clear
12:54 PM 75.0 °F - 24.1 °F 15% 29.78 in 10.0 mi SSW 26.5 mph 35.7 mph N/A   Clear
1:54 PM 79.0 °F - 25.0 °F 14% 29.75 in 10.0 mi SSW 28.8 mph 34.5 mph N/A   Clear
2:54 PM 78.1 °F - 26.1 °F 15% 29.72 in 10.0 mi SSW 19.6 mph 29.9 mph N/A   Clear
3:54 PM 82.0 °F - 27.0 °F 13% 29.68 in 10.0 mi SSW 20.7 mph 28.8 mph N/A   Clear
4:54 PM 82.9 °F - 26.1 °F 13% 29.65 in 10.0 mi SSW 16.1 mph - N/A   Clear
5:54 PM 82.0 °F - 24.1 °F 12% 29.64 in 10.0 mi SW 12.7 mph - N/A   Clear
6:54 PM 79.0 °F - 25.0 °F 14% 29.63 in 10.0 mi SSW 11.5 mph - N/A   Clear
7:54 PM 64.9 °F - 24.1 °F 21% 29.62 in 10.0 mi South 10.4 mph - N/A   Clear
8:54 PM 59.0 °F - 25.0 °F 27% 29.62 in 10.0 mi South 10.4 mph - N/A   Clear
9:54 PM 55.0 °F - 26.1 °F 33% 29.61 in 10.0 mi South 9.2 mph - N/A   Clear
10:54 PM 53.1 °F - 26.1 °F 35% 29.58 in 10.0 mi South 4.6 mph - N/A   Clear
11:54 PM 48.9 °F - 26.1 °F 41% 29.56 in 10.0 mi SSE 10.4 mph - N/A   Clear